Main page
METAR-TAF:

METAR-TAF

Airports :

Wakkanai Airport

Wakkanai, Japan

latitude: 45-24N, longitude: 141-48E, elevation: 8 m

Current weather observation

The report was made 4 hours and 31 minutes ago, at 09:00 UTC
Wind 3 kt from the East
Temperature -5°C
Humidity 93%
Pressure 1012 hPa
Visibility 10 km or more
Few clouds at a height of 5000 ft
Broken clouds at a height of 13000 ft
Broken clouds at a height of 14000 ft

METAR: RJCW 030900Z 09003KT 9999 FEW050 BKN130 BKN140 M05/M06 Q1012

Time: 22:31 (13:31 UTC)


TAF: missing

Weather observations and forecasts of more than 4000 airports (METAR and TAF reports).

The available stations are represented by yellow and red dots on the map.

Hover mouse over dot to see the name of the station.

Then click to see weather observations and forecasts.

To change the map : click on the green buttons with a black cross to zoom in, on the green button with a dash to zoom out, or on the green arrows for adjacent maps.


METAR-TAF: